This demonstration page uses our WeatherBlox Daily Observations layout. Learn more.

39.12711, -84.51439

Hourly Observations for January 23, 2021

Temp ( °F °C ) Dew Point ( °F °C ) Humidity (%) Winds ( mph kmh ) Pressure ( in mb ) Visibility ( mi km ) Precip ( " mm )
12:53 am 00:53 Clear 23 -5 11 -11.7 60 60 N 10 17 30.29 1026 10 16.0934 0 0
1:53 am 01:53 Clear 21 -6.1 11 -11.7 65 65 N 9 15 30.33 1027 10 16.0934 0 0
2:53 am 02:53 Clear 19 -7.2 10 -12.2 68 68 NNW 7 11 30.35 1028 10 16.0934 0 0
3:53 am 03:53 Clear 19 -7.2 8 -13.3 62 62 N 7 11 30.37 1028 10 16.0934 0 0
4:53 am 04:53 Clear 18 -7.8 8 -13.3 65 65 NNW 5 7 30.37 1029 10 16.0934 0 0
5:53 am 05:53 Clear 18 -7.8 8 -13.3 65 65 Calm 30.38 1029 10 16.0934 0 0
6:53 am 06:53 Clear 15 -9.4 8 -13.3 74 74 Calm 30.42 1030 10 16.0934 0 0
7:53 am 07:53 Sunny 14 -10 9 -12.8 80 80 Calm 30.43 1031 10 16.0934 0 0
8:53 am 08:53 Sunny 18 -7.8 13 -10.6 81 81 Calm 30.44 1031 10 16.0934 0 0
9:53 am 09:53 Sunny 22 -5.6 12 -11.1 66 66 E 5 7 30.46 1031 10 16.0934 0 0
10:53 am 10:53 Sunny 25 -3.9 11 -11.7 55 55 ENE 8 13 30.48 1032 10 16.0934 0 0
11:53 am 11:53 Sunny 27 -2.8 12 -11.1 53 53 ENE 5 7 30.46 1032 10 16.0934 0 0
12:53 pm 12:53 Sunny 30 -1.1 13 -10.6 49 49 Calm 30.43 1031 10 16.0934 0 0
1:53 pm 13:53 Sunny 31 -0.6 13 -10.6 47 47 Calm 30.41 1030 10 16.0934 0 0
2:53 pm 14:53 Sunny 34 1.1 12 -11.1 40 40 NE 5 7 30.39 1029 10 16.0934 0 0
3:53 pm 15:53 Sunny 34 1.1 13 -10.6 42 42 NNE 6 9 30.38 1029 10 16.0934 0 0
4:53 pm 16:53 Sunny 34 1.1 12 -11.1 40 40 E 3 6 30.37 1029 10 16.0934 0 0
5:53 pm 17:53 Clear 30 -1.1 12 -11.1 47 47 E 3 6 30.38 1029 10 16.0934 0 0
6:53 pm 18:53 Clear 28 -2.2 13 -10.6 53 53 NE 3 6 30.4 1029 10 16.0934 0 0
7:53 pm 19:53 Clear 25 -3.9 14 -10 63 63 NNE 5 7 30.38 1029 10 16.0934 0 0
8:53 pm 20:53 Clear 24 -4.4 16 -8.9 71 71 NE 5 7 30.37 1028 10 16.0934 0 0
9:53 pm 21:53 Clear 23 -5 14 -10 68 68 NNE 5 7 30.37 1028 10 16.0934 0 0
10:53 pm 22:53 Clear 25 -3.9 15 -9.4 66 66 N 5 7 30.35 1028 10 16.0934 0 0
11:53 pm 23:53 Partly Cloudy 26 -3.3 15 -9.4 63 63 NNE 6 9 30.35 1028 10 16.0934 0 0

Powered by AerisWeather